(4) Vesta
ephemeris date magn radius delta ra dec elong phase
Today2 Jun 20238.52.534 AU3.457 AU03h18m+13°31'20.6°8.1°
Opposition21 Dec 20236.42.566 AU1.583 AU05h57m+20°31'177.1°1.1°
(4) Vesta - 2023-06-02
astro.vanbuitenen.nl


 
-1 year
-1 month
-1 day
Now
+1 day
+1 month
+1 year

The interactive orbit chart above shows the body's path through the solar system and its position at the given date. Green and blue lines are shown perpendicular to the ecliptic plane: Green if the path is above the ecliptic plane, blue if it is below. (Left-click and drag to rotate the view; Right-click and drag to move the view; Use scroll wheel to zoom in our out.)

The orbital elements of Vesta are:

            e (Eccentricity)                : 0.0887575
            a (Semimajor axis)              : 2.3630382
            i (Inclination)                 : 7.13926
            Ω (Longitude of ascending node) : 103.75733
            ω (Argument of perihelion)      : 151.59911
            M (Mean anomaly)                : 115.13301
            Epoch                           : 2023 Feb 25

            L (Longitude of perihelion)     : 75.54262
            B (Latitude of perihelion)      : 3.38890
            P (Orbital period in years)     : 3.63            
        

The light curve chart below shows the estimated development of the minor planet's magnitude.


The all-sky chart below shows the path of the minor planet over the same period as the light curve. The current position is marked yellow.





The following chart shows the path of the minor planet in the next few days. The field of view is optimized for (~10x50) binoculars and finderscopes. A more printer-friendly version of the same chart can be found below.




Ephemerides:
Date       Time       RA (2000)    DEC (2000)    delta   radius  elong  phase   PA    magn
2023-06-02 00:00 UT   03 18 21.3   +13 31 57     3.457    2.534   20.6    8.1   243    8.5 
2023-06-02 22:59 UT   03 20 00.0   +13 38 37     3.454    2.534   21.1    8.3   243    8.5 
2023-06-03 00:00 UT   03 20 04.4   +13 38 54     3.454    2.534   21.1    8.3   243    8.5 
2023-06-04 00:00 UT   03 21 47.4   +13 45 47     3.450    2.535   21.6    8.5   244    8.5 
2023-06-05 00:00 UT   03 23 30.5   +13 52 36     3.446    2.535   22.2    8.7   244    8.5 
2023-06-06 00:00 UT   03 25 13.5   +13 59 20     3.442    2.536   22.7    8.9   245    8.5 
2023-06-07 00:00 UT   03 26 56.5   +14 05 60     3.437    2.536   23.2    9.1   245    8.5 
2023-06-08 00:00 UT   03 28 39.4   +14 12 35     3.433    2.537   23.7    9.3   245    8.5 
2023-06-09 00:00 UT   03 30 22.3   +14 19 06     3.429    2.537   24.2    9.4   246    8.5 
2023-06-10 00:00 UT   03 32 05.2   +14 25 33     3.424    2.538   24.7    9.6   246    8.5 
2023-06-11 00:00 UT   03 33 48.0   +14 31 55     3.419    2.538   25.2    9.8   247    8.6 
2023-06-12 00:00 UT   03 35 30.8   +14 38 12     3.415    2.539   25.8   10.0   247    8.6 
2023-06-13 00:00 UT   03 37 13.5   +14 44 25     3.410    2.539   26.3   10.2   247    8.6 
2023-06-14 00:00 UT   03 38 56.1   +14 50 34     3.405    2.540   26.8   10.4   248    8.6 
2023-06-15 00:00 UT   03 40 38.7   +14 56 38     3.400    2.540   27.3   10.6   248    8.6 
2023-06-16 00:00 UT   03 42 21.3   +15 02 38     3.394    2.541   27.8   10.8   248    8.6 
2023-06-17 00:00 UT   03 44 03.7   +15 08 33     3.389    2.541   28.4   10.9   249    8.6 
2023-06-18 00:00 UT   03 45 46.1   +15 14 23     3.384    2.542   28.9   11.1   249    8.6 
2023-06-19 00:00 UT   03 47 28.4   +15 20 09     3.378    2.542   29.4   11.3   249    8.6 
2023-06-20 00:00 UT   03 49 10.6   +15 25 50     3.372    2.543   29.9   11.5   250    8.6 
2023-06-21 00:00 UT   03 50 52.7   +15 31 26     3.366    2.543   30.5   11.7   250    8.6 


    Terminology:
            
    delta:  distance between minor planet and earth in AU
    radius: distance between minor planet and sun in AU
    magn:   magnitude (brightness) estimate    
    ra:     right ascension in hours (24h = 360deg)
    dec:    declination in degrees
    elong:  elongation in degrees (angle sun-earth-minor planet)    
    phase:  phase angle in degrees (angle sun-minor planet-earth)        
    AU:     Astronomical Unit (mean distance between earth and sun: 149597870.7 km
    

Orbital elements provided by the MPC (Minor Planet Center).
Calculations by a modified version of AAPlus, a C# implementation of the AA+ project by PJ Naughter from the algorithms presented in the book "Astronomical Algorithms" by Jean Meeus.
NGC2000 dso catalog and star labels from VizieR as provided by the Strasbourg astronomical Data Center.
Tycho2 catalog from the ESO archive.